Temp
74 78 77 74 60 54 50 60 71 73 77 77 86 81 77 76 76 63 78 83 80 77 78 80 80 80 80 79 79 78 78 78 78 78 78 78 78 79 79 79 79 80 80 80 80 80 80 80 80
76 81 74 66 54 46 51 64 68 72 75 83 83 81 77 76 81 79 78 82 81 78 77 79 80 80 80 79 78 78 78 78 78 78 78 78 78 79 79 79 79 80 80 81 80 80 80 80 80
79 80 64 59 50 48 52 64 72 76 82 82 77 81 78 74 82 79 84 82 80 78 78 78 80 80 79 79 78 78 78 78 78 78 78 78 78 78 78 79 79 80 81 81 80 80 80 80 79
75 69 64 54 51 58 63 66 73 77 82 81 80 74 76 80 82 83 84 83 80 77 78 79 79 79 79 79 79 78 78 78 78 78 78 78 78 78 78 78 79 80 80 80 80 79 79 79 79
69 62 52 48 54 62 71 70 77 76 78 81 81 74 73 81 85 86 83 83 80 77 77 78 79 79 79 79 79 78 78 78 78 78 78 78 78 78 78 78 79 79 80 80 79 79 78 78 78
60 58 46 47 56 65 70 73 75 79 81 82 80 75 74 81 83 82 84 83 82 78 77 78 79 79 79 79 79 78 78 78 78 78 78 78 78 78 78 78 78 79 79 79 79 78 78 77 77
56 51 47 51 57 61 69 74 73 74 76 79 81 74 75 78 83 85 84 83 79 79 76 77 78 78 79 78 78 78 78 78 78 78 77 77 77 77 78 78 78 78 78 78 78 77 77 77 77
60 54 49 52 56 58 72 73 76 74 77 86 87 74 74 80 85 86 85 78 76 76 76 77 78 79 76 77 78 78 78 77 77 77 77 77 77 77 77 76 77 78 78 78 77 77 77 76 76
65 48 47 51 56 62 74 71 78 83 79 82 81 79 83 86 88 82 78 76 75 76 74 76 78 79 78 77 77 77 78 78 77 77 77 75 73 74 75 76 77 78 77 77 77 77 76 76 76
57 49 52 61 63 60 71 72 73 77 77 76 77 82 83 85 81 77 77 73 74 74 73 73 75 76 77 79 78 75 76 75 75 74 74 72 71 71 75 76 77 77 77 77 77 77 76 76 70
54 53 57 61 69 71 70 71 76 73 70 72 72 75 77 77 77 78 78 77 76 76 76 73 72 72 73 76 78 76 76 75 73 72 72 70 71 71 71 70 72 72 76 72 73 72 71 70 69
51 60 61 62 69 67 68 70 73 73 70 78 78 76 71 69 71 69 71 69 74 75 75 75 74 73 73 72 72 71 72 71 70 70 71 69 67 68 69 69 70 70 70 70 69 67 68 69 71
53 55 61 66 67 64 70 67 68 69 75 79 80 78 70 67 69 70 71 71 70 69 70 74 75 74 72 71 70 69 69 69 70 69 70 69 67 67 69 70 70 70 69 69 69 68 70 70 71
57 61 61 63 64 64 66 67 68 71 74 75 76 73 74 69 68 67 70 71 70 69 68 69 74 76 74 72 71 72 71 71 70 71 72 71 69 69 70 70 71 69 71 72 71 71 69 69 69
61 53 58 63 64 61 65 62 62 69 72 71 72 73 73 73 72 70 71 70 69 68 70 69 73 72 74 74 73 74 74 75 74 75 74 74 71 71 72 71 71 73 73 73 73 71 70 70 71
55 51 49 59 63 62 64 56 64 68 67 67 70 71 74 71 72 72 73 70 69 70 71 71 71 70 69 73 73 74 76 76 77 76 75 76 75 73 72 73 73 73 72 71 69 68 69 68 68
47 46 45 53 61 60 60 56 62 67 65 65 67 68 71 72 72 72 69 69 66 70 70 70 70 70 69 69 71 76 76 77 79 74 73 76 77 78 74 75 72 72 68 67 67 66 67 65 67
41 43 46 48 56 57 53 52 60 64 65 64 65 68 71 70 69 76 72 69 69 68 69 70 71 70 72 68 71 73 74 79 75 77 78 78 78 78 76 74 72 71 67 67 67 66 64 63 63
51 50 49 53 59 56 53 53 58 62 63 62 63 64 66 68 70 73 72 73 71 67 69 70 69 73 70 67 69 71 74 74 76 77 79 79 79 79 78 78 72 70 67 67 67 64 64 63 66
52 48 47 53 58 58 53 52 57 61 60 62 64 64 64 67 68 72 68 67 66 65 68 71 71 70 70 67 69 70 78 78 78 77 76 78 79 78 76 72 72 69 69 68 67 67 66 66 66
51 49 48 50 56 56 52 47 50 58 59 63 66 68 66 68 69 69 71 66 66 65 67 70 72 74 74 70 72 71 73 72 74 74 74 76 78 76 75 72 71 71 69 68 69 69 68 63 64
47 57 57 55 49 40 50 38 47 53 58 62 64 67 67 66 68 68 72 66 66 67 70 71 71 68 69 68 69 72 73 72 78 79 79 74 76 75 74 72 71 70 69 68 69 71 67 64 62
52 59 56 55 48 43 45 36 43 53 54 58 63 66 68 65 67 68 71 71 72 72 70 70 72 70 72 70 71 73 71 70 69 69 71 71 71 72 73 72 71 70 69 68 66 68 65 64 62
62 55 53 50 49 36 47 44 45 51 54 61 61 65 69 67 66 70 71 70 68 69 73 74 74 72 70 73 71 71 69 68 67 67 69 68 69 70 71 72 71 69 68 67 67 67 65 64 63
57 46 34 31 32 35 50 45 48 56 63 65 64 65 67 65 65 67 66 67 65 68 69 70 71 69 71 72 70 69 70 69 69 68 67 67 66 67 69 69 68 67 66 66 65 64 64 63 62
53 47 33 29 30 41 53 41 49 62 68 69 70 66 63 63 65 68 65 64 65 67 67 69 69 68 68 68 68 67 69 68 67 67 66 65 64 64 67 67 66 67 67 65 64 64 64 62 62
50 44 50 41 42 41 42 49 60 65 66 65 62 63 61 61 64 64 64 68 69 68 66 67 67 65 65 64 63 64 64 63 63 63 64 63 63 67 66 65 66 66 67 66 65 63 62 62 61
54 56 42 36 30 31 39 42 45 53 61 61 59 60 61 63 66 67 68 68 68 68 68 67 66 65 65 65 64 62 62 62 62 62 63 61 61 62 64 63 63 65 65 65 64 63 62 61 61
48 47 42 41 39 31 28 37 51 51 56 61 58 61 63 63 65 66 66 67 67 68 67 65 65 65 64 65 64 63 62 62 61 60 60 60 62 63 65 64 64 62 62 62 62 62 63 62 61
58 51 45 36 35 38 35 35 55 57 57 62 62 64 66 65 64 67 66 66 66 64 64 63 64 64 62 62 62 61 61 61 60 60 60 60 61 63 65 65 65 66 65 63 62 62 61 61 60
MSLP
1010.41 1010.09 1009.95 1010.37 1011.65 1011.82 1010.83 1009.11 1007.08 1006.89 1005.63 1005.54 1004.79 1005.47 1005.85 1007.27 1007.46 1007.74 1006.65 1007.29 1007.81 1008.52 1008.96 1009.35 1009.60 1009.75 1009.83 1010.10 1010.63 1011.00 1011.42 1011.84 1012.09 1012.42 1012.68 1012.91 1013.11 1013.24 1013.26 1013.51 1013.76 1013.79 1013.85 1013.94 1014.00 1014.15 1014.27 1014.34 1014.43
1010.44 1010.04 1010.27 1011.02 1011.93 1012.03 1010.27 1008.20 1006.83 1006.56 1006.15 1005.32 1005.28 1005.97 1006.62 1006.50 1006.43 1005.85 1006.23 1007.17 1007.69 1008.02 1008.77 1009.21 1009.50 1009.64 1009.85 1010.18 1010.54 1010.91 1011.28 1011.73 1012.11 1012.43 1012.74 1013.06 1013.37 1013.43 1013.43 1013.46 1013.77 1013.90 1013.94 1014.10 1014.10 1014.23 1014.39 1014.44 1014.53
1010.41 1010.27 1011.23 1011.62 1011.82 1011.45 1009.77 1007.53 1006.48 1005.75 1005.59 1005.27 1005.62 1006.26 1006.47 1005.95 1005.32 1005.13 1004.79 1005.99 1007.13 1008.16 1008.72 1009.03 1009.49 1009.85 1009.91 1010.32 1010.53 1010.84 1011.23 1011.73 1011.94 1012.35 1012.74 1013.11 1013.39 1013.49 1013.60 1013.74 1013.81 1014.00 1013.99 1014.18 1014.24 1014.40 1014.58 1014.68 1014.70
1010.53 1010.95 1011.64 1011.69 1011.50 1009.82 1008.22 1007.13 1006.35 1005.70 1004.60 1004.40 1004.55 1005.90 1005.67 1004.39 1004.72 1004.57 1005.29 1005.43 1006.94 1007.74 1008.59 1009.02 1009.28 1009.89 1009.97 1010.28 1010.67 1011.01 1011.17 1011.60 1011.88 1012.13 1012.70 1013.04 1013.42 1013.62 1013.74 1013.94 1014.03 1014.14 1014.14 1014.30 1014.47 1014.62 1014.79 1014.92 1014.95
1010.74 1011.54 1012.05 1011.90 1010.78 1009.27 1007.56 1007.05 1006.37 1005.63 1004.78 1004.30 1004.02 1004.92 1005.08 1004.15 1004.26 1003.97 1005.10 1005.30 1005.84 1007.09 1008.08 1008.86 1009.02 1009.42 1009.82 1010.21 1010.57 1010.91 1011.32 1011.56 1011.85 1011.95 1012.47 1012.90 1013.33 1013.78 1013.99 1014.09 1014.17 1014.29 1014.37 1014.47 1014.68 1014.83 1015.02 1015.10 1014.98
1011.35 1011.79 1012.31 1011.70 1010.24 1008.82 1007.43 1006.83 1006.25 1005.47 1004.22 1004.18 1003.99 1004.23 1004.06 1003.96 1004.30 1004.73 1005.31 1005.90 1006.92 1006.19 1007.61 1008.76 1009.30 1009.24 1009.50 1010.21 1010.66 1011.03 1011.29 1011.81 1012.16 1012.28 1012.41 1012.85 1013.34 1013.74 1014.00 1014.15 1014.32 1014.43 1014.57 1014.71 1014.83 1015.04 1015.18 1015.13 1015.02
1011.40 1012.02 1011.76 1010.97 1009.84 1008.57 1007.33 1006.49 1005.93 1005.03 1004.34 1003.59 1003.67 1003.93 1004.16 1004.10 1004.91 1005.43 1005.72 1006.06 1006.77 1007.13 1007.77 1008.72 1009.28 1009.65 1009.80 1010.26 1010.79 1011.31 1011.59 1012.06 1012.38 1012.74 1012.92 1013.20 1013.56 1013.85 1014.05 1014.15 1014.29 1014.50 1014.73 1014.91 1014.97 1015.09 1015.19 1015.13 1015.11
1011.01 1011.72 1011.37 1010.29 1009.19 1008.19 1006.97 1006.46 1005.26 1004.59 1004.48 1004.30 1003.60 1004.02 1003.66 1003.99 1004.80 1005.40 1006.15 1007.03 1007.38 1007.41 1008.31 1008.94 1009.49 1009.92 1010.35 1010.45 1010.65 1011.13 1011.54 1011.99 1012.49 1012.80 1013.04 1013.40 1013.69 1013.92 1014.03 1014.16 1014.24 1014.43 1014.69 1014.92 1015.00 1015.03 1015.10 1015.21 1015.18
1010.38 1011.13 1010.52 1009.60 1008.78 1007.88 1006.62 1006.34 1005.29 1004.32 1004.13 1004.87 1004.98 1003.98 1004.33 1003.20 1004.70 1005.76 1006.50 1007.49 1007.89 1007.98 1008.55 1009.00 1009.62 1009.98 1010.47 1010.75 1010.70 1010.89 1011.22 1011.73 1012.25 1012.81 1013.02 1013.39 1013.75 1013.88 1013.99 1014.07 1014.23 1014.46 1014.61 1014.77 1014.90 1015.02 1015.14 1015.13 1015.16
1010.22 1010.10 1009.32 1008.63 1008.23 1007.73 1006.87 1006.38 1005.83 1004.88 1004.25 1004.62 1004.83 1004.34 1004.99 1004.99 1005.03 1006.28 1006.92 1007.41 1007.61 1008.55 1009.50 1009.98 1010.19 1010.45 1010.40 1010.81 1011.06 1011.47 1011.57 1012.05 1012.42 1012.76 1013.12 1013.44 1013.79 1013.86 1013.89 1013.99 1014.16 1014.34 1014.58 1014.67 1014.68 1014.87 1014.96 1014.96 1015.14
1009.55 1008.96 1008.64 1008.06 1007.91 1007.45 1006.90 1006.42 1005.83 1005.43 1005.21 1005.32 1005.58 1005.47 1006.17 1007.38 1007.82 1006.87 1007.17 1006.52 1007.53 1008.58 1009.55 1010.64 1011.00 1011.20 1011.06 1011.23 1011.66 1011.97 1012.18 1012.13 1012.49 1012.73 1013.03 1013.36 1013.75 1013.95 1013.98 1014.22 1014.17 1014.23 1014.36 1014.56 1014.56 1014.71 1014.76 1014.91 1014.98
1009.54 1008.48 1008.47 1008.17 1007.60 1007.24 1006.82 1006.55 1006.03 1006.09 1006.27 1006.23 1005.76 1006.22 1006.90 1008.24 1009.61 1010.36 1009.72 1009.81 1009.57 1010.01 1009.92 1009.74 1010.56 1010.92 1011.14 1011.43 1011.81 1012.00 1012.24 1012.47 1012.75 1012.86 1013.06 1013.47 1013.71 1013.92 1013.94 1014.10 1014.03 1014.03 1014.10 1014.39 1014.55 1014.72 1014.87 1014.84 1014.62
1009.06 1008.63 1008.32 1008.08 1007.62 1006.87 1006.91 1006.76 1006.40 1005.95 1006.17 1006.81 1006.82 1006.53 1007.57 1008.69 1009.26 1011.68 1011.02 1010.55 1010.81 1011.08 1010.67 1010.80 1010.67 1011.27 1011.92 1011.96 1011.92 1012.41 1012.73 1012.64 1012.75 1013.02 1013.13 1013.28 1013.75 1013.91 1013.67 1013.72 1013.76 1013.83 1013.94 1014.06 1014.28 1014.63 1014.84 1014.77 1014.78
1008.19 1008.59 1008.38 1007.92 1007.43 1006.86 1006.94 1006.80 1006.42 1005.91 1005.67 1006.25 1007.27 1007.41 1007.70 1008.02 1010.18 1011.05 1010.75 1010.56 1011.46 1011.88 1011.64 1011.39 1011.37 1011.90 1011.72 1012.10 1011.99 1012.17 1012.29 1012.46 1012.74 1012.70 1012.77 1012.79 1013.26 1013.56 1013.53 1013.62 1013.52 1013.59 1013.54 1013.42 1013.77 1014.17 1014.40 1014.50 1014.37
1008.42 1008.61 1008.31 1007.45 1007.23 1007.02 1006.77 1006.71 1006.27 1006.09 1005.78 1005.98 1006.93 1007.67 1008.05 1008.68 1009.70 1009.95 1008.77 1008.90 1010.13 1011.59 1011.50 1011.70 1012.31 1012.48 1012.33 1012.10 1012.30 1012.19 1011.98 1012.34 1012.56 1012.38 1012.59 1012.53 1012.55 1012.69 1013.00 1013.16 1013.27 1013.16 1013.03 1013.08 1013.32 1013.58 1013.72 1013.93 1014.03
1008.26 1008.47 1007.92 1007.08 1007.12 1006.75 1007.05 1005.79 1006.20 1006.17 1006.24 1005.92 1006.63 1007.73 1008.05 1008.46 1008.69 1008.43 1008.10 1008.65 1008.46 1009.82 1009.88 1011.09 1012.21 1013.49 1012.98 1012.47 1012.11 1012.10 1012.04 1012.22 1012.37 1012.18 1012.20 1012.41 1012.36 1012.25 1012.60 1012.85 1012.78 1012.73 1012.88 1012.98 1013.32 1013.54 1013.65 1013.80 1014.17
1007.95 1007.51 1007.53 1007.20 1006.50 1006.87 1006.87 1006.24 1006.11 1006.12 1006.54 1006.36 1006.27 1006.95 1007.78 1007.82 1008.17 1008.44 1008.96 1008.96 1009.06 1009.20 1009.64 1010.20 1011.84 1012.91 1012.24 1012.23 1012.18 1012.20 1011.64 1011.78 1011.60 1011.73 1011.70 1011.78 1011.71 1011.62 1011.89 1012.33 1012.40 1012.56 1012.86 1013.17 1013.37 1013.35 1013.53 1014.07 1013.96
1007.84 1007.67 1007.30 1007.11 1006.58 1006.84 1006.99 1006.76 1006.43 1006.22 1006.40 1006.70 1006.18 1006.34 1006.74 1007.08 1007.23 1007.83 1008.52 1009.24 1009.46 1009.82 1009.57 1009.39 1009.50 1011.01 1010.74 1010.62 1010.94 1012.25 1012.27 1011.56 1011.75 1011.34 1010.82 1010.91 1011.15 1011.21 1011.59 1011.90 1012.15 1012.07 1012.86 1013.17 1013.31 1013.43 1013.49 1013.79 1014.09
1007.17 1007.17 1007.15 1006.85 1006.58 1006.85 1006.97 1007.00 1006.91 1006.62 1006.50 1006.47 1006.15 1006.05 1006.24 1006.64 1007.07 1007.09 1007.57 1008.34 1009.26 1009.82 1009.74 1009.66 1009.63 1009.35 1009.81 1010.09 1010.57 1010.74 1011.76 1010.88 1010.92 1010.61 1010.16 1010.07 1010.56 1010.65 1010.99 1011.49 1011.72 1012.06 1012.36 1012.81 1012.88 1013.35 1013.90 1013.99 1013.94
1006.73 1006.76 1006.64 1006.52 1006.33 1006.69 1007.05 1007.09 1006.96 1006.67 1006.50 1006.30 1006.19 1005.96 1005.92 1006.11 1006.79 1007.02 1007.07 1007.56 1008.64 1009.17 1009.91 1009.48 1009.00 1009.28 1009.68 1009.98 1010.03 1009.93 1010.68 1010.23 1009.18 1009.40 1009.58 1009.51 1009.96 1010.02 1010.55 1010.93 1011.33 1011.77 1012.31 1012.80 1012.96 1013.19 1013.68 1013.92 1013.83
1005.70 1005.77 1006.34 1006.60 1006.58 1006.80 1007.22 1007.29 1007.29 1006.71 1006.30 1005.77 1005.72 1005.46 1005.43 1005.69 1005.78 1006.85 1007.01 1006.95 1007.47 1008.28 1008.54 1008.98 1008.65 1008.45 1009.04 1009.21 1009.06 1009.57 1009.68 1010.10 1009.09 1008.67 1008.94 1009.32 1009.57 1009.60 1009.83 1010.43 1010.88 1011.31 1011.74 1012.15 1012.39 1012.72 1013.12 1013.74 1013.96
1004.65 1005.12 1005.92 1006.55 1007.07 1007.88 1007.91 1007.76 1007.28 1006.94 1006.03 1005.29 1004.81 1004.86 1004.77 1005.12 1005.34 1005.87 1006.49 1007.06 1006.80 1006.97 1008.05 1008.57 1008.81 1009.00 1008.90 1009.08 1009.57 1009.65 1009.68 1009.81 1008.96 1008.37 1008.65 1009.09 1009.17 1009.30 1009.39 1010.01 1010.53 1010.80 1010.92 1011.28 1011.41 1012.10 1012.57 1012.53 1013.46
1003.92 1004.75 1005.75 1006.56 1007.43 1008.08 1008.37 1008.62 1006.13 1006.78 1005.46 1003.79 1003.57 1003.74 1004.12 1004.42 1004.66 1004.97 1005.81 1005.86 1006.15 1006.41 1007.12 1007.45 1008.13 1008.49 1008.35 1008.72 1008.94 1009.18 1009.38 1009.28 1009.02 1008.73 1008.83 1008.93 1009.23 1009.16 1009.34 1009.56 1009.86 1010.06 1010.56 1010.89 1011.31 1011.57 1012.22 1012.31 1012.27
1003.88 1004.75 1005.91 1006.61 1007.30 1007.39 1007.53 1007.77 1004.64 1004.89 1003.18 1002.81 1002.61 1002.71 1002.77 1003.76 1004.08 1004.36 1004.97 1005.26 1005.43 1005.54 1006.06 1006.36 1007.33 1007.89 1007.87 1008.10 1008.75 1008.87 1008.92 1009.04 1009.25 1009.32 1009.10 1009.14 1008.88 1008.90 1008.97 1009.09 1009.45 1009.78 1010.15 1010.30 1010.72 1011.02 1011.62 1011.48 1011.54
1003.45 1004.83 1006.71 1007.56 1007.55 1006.23 1007.36 1007.28 1003.91 1002.73 1002.05 1001.65 1001.51 1002.02 1002.43 1003.47 1003.99 1004.71 1005.11 1005.49 1005.80 1005.22 1005.42 1006.05 1007.10 1007.64 1007.63 1007.66 1008.45 1008.42 1008.37 1008.73 1008.65 1008.92 1009.02 1008.91 1008.98 1009.08 1008.81 1008.95 1009.28 1009.68 1010.04 1010.37 1010.57 1010.77 1010.90 1011.14 1011.63
1002.54 1003.98 1005.45 1006.68 1007.03 1006.86 1007.03 1004.58 1002.56 1001.48 1000.57 1000.68 1000.58 1001.33 1002.44 1003.30 1003.92 1004.85 1005.69 1005.98 1005.72 1005.92 1006.07 1006.38 1007.17 1007.54 1007.53 1007.93 1008.82 1008.69 1007.87 1008.29 1008.57 1008.81 1008.93 1009.19 1009.38 1009.24 1009.06 1009.15 1009.54 1009.53 1009.49 1009.99 1010.51 1010.43 1010.53 1010.86 1011.13
1002.02 1003.63 1004.77 1006.24 1007.09 1007.39 1006.00 1003.93 1001.69 1000.73 1000.03 1000.01 1000.60 1001.60 1002.70 1003.46 1004.48 1005.29 1006.12 1005.90 1006.13 1006.70 1007.20 1007.55 1007.77 1008.16 1008.43 1008.68 1009.36 1009.60 1009.06 1009.57 1009.51 1009.47 1009.45 1009.77 1009.99 1009.53 1009.36 1009.24 1009.44 1009.45 1009.56 1009.67 1010.04 1010.14 1010.51 1010.70 1010.95
1000.70 1002.58 1004.66 1006.47 1007.56 1007.25 1005.95 1004.90 1003.25 1001.69 1000.29 1000.27 1001.22 1001.83 1002.95 1003.91 1004.68 1005.18 1005.56 1005.85 1006.50 1007.07 1007.80 1007.91 1008.21 1008.74 1009.32 1009.57 1009.72 1010.19 1010.33 1010.79 1010.56 1010.30 1010.40 1010.14 1010.16 1009.96 1009.77 1009.86 1009.76 1009.76 1010.07 1010.13 1010.13 1010.20 1010.33 1010.49 1010.68
1000.40 1001.92 1004.07 1005.74 1006.79 1007.08 1007.25 1005.58 1003.80 1003.24 1002.18 1000.63 1001.72 1002.02 1003.32 1004.15 1005.02 1005.43 1006.19 1006.51 1007.11 1007.58 1008.15 1008.70 1008.93 1009.13 1009.42 1009.85 1009.94 1010.30 1010.82 1010.62 1010.56 1010.58 1010.66 1010.41 1010.26 1010.29 1010.32 1010.23 1010.24 1010.45 1010.23 1010.23 1010.11 1010.50 1010.53 1010.72 1010.47
999.71 1001.29 1003.01 1004.93 1006.69 1007.12 1007.30 1006.04 1004.39 1003.57 1001.81 1000.92 1001.86 1002.45 1003.61 1004.62 1005.55 1006.00 1006.67 1007.50 1008.14 1008.64 1008.77 1009.26 1009.66 1009.86 1010.28 1010.63 1010.86 1011.02 1010.88 1010.95 1010.88 1011.05 1011.12 1010.92 1010.76 1010.68 1010.81 1010.65 1010.42 1010.33 1010.69 1010.41 1010.81 1010.45 1010.56 1010.70 1010.73
Wind_Speed
7 6 2 4 4 5 4 7 5 6 7 4 7 6 13 4 4 6 2 13 18 15 13 14 18 18 19 19 18 17 16 16 16 15 14 14 13 13 14 13 12 13 14 13 13 12 11 10 8
4 4 5 2 4 1 7 7 9 4 5 13 9 12 8 10 6 6 13 14 18 17 13 13 19 19 19 19 18 17 17 17 17 16 15 14 12 13 13 13 12 12 14 13 12 12 10 9 6
4 2 3 4 4 6 7 4 4 5 4 4 8 0 7 8 6 11 10 22 19 14 11 13 18 18 19 19 18 18 18 17 18 17 16 15 13 12 11 11 11 12 13 12 11 10 9 7 5
2 4 4 3 8 8 9 2 10 13 13 7 5 4 4 7 2 5 21 25 19 15 11 15 20 18 19 19 18 17 18 18 18 18 16 15 13 11 11 10 10 10 12 11 10 9 8 6 3
2 3 1 3 8 7 11 2 8 13 10 4 8 8 6 1 7 12 20 21 23 17 10 13 20 21 19 19 19 18 17 17 17 17 16 15 13 11 10 9 9 9 10 10 9 8 6 4 3
1 3 3 6 10 6 9 7 6 12 17 6 2 7 4 2 9 16 18 18 14 19 15 11 16 20 20 19 18 17 17 16 15 15 15 14 13 12 10 9 8 8 8 8 8 7 5 4 3
6 4 6 7 7 7 7 4 6 7 8 5 3 8 6 2 4 14 15 14 13 14 14 10 11 13 18 18 17 15 15 14 14 13 13 13 12 11 10 9 8 8 7 7 7 6 6 5 5
5 4 5 6 8 6 7 3 6 3 3 5 4 6 6 6 12 12 11 11 11 12 11 12 12 11 9 11 17 16 15 15 13 13 13 12 11 10 10 9 8 8 7 7 7 7 7 6 7
4 3 8 7 6 3 12 6 6 5 3 7 7 7 9 18 19 11 14 9 9 10 10 12 13 12 12 9 11 16 18 16 15 12 12 10 4 6 8 8 8 7 7 7 7 7 6 8 8
6 6 8 6 6 2 6 4 6 5 1 4 11 15 13 6 16 15 13 11 11 10 7 7 10 11 12 7 10 7 9 7 6 6 6 4 5 5 6 7 9 8 8 8 8 8 9 8 4
5 8 3 3 9 9 6 8 4 3 2 2 6 9 10 8 10 8 5 16 15 14 10 6 4 2 5 5 6 5 4 6 4 6 5 5 4 4 3 2 3 4 8 4 5 5 4 5 4
5 4 5 3 5 4 5 4 5 4 3 5 11 10 8 11 11 12 11 14 5 3 3 12 9 7 6 5 5 4 4 3 3 4 6 4 3 4 4 3 5 4 3 5 5 3 3 6 6
9 4 2 7 12 6 4 4 3 5 1 4 9 12 12 8 10 2 7 9 9 10 7 5 4 6 1 4 3 3 2 3 4 4 5 5 4 5 4 5 4 4 4 4 4 3 3 5 4
5 13 10 10 13 5 8 5 5 6 6 6 6 10 12 12 8 12 8 1 8 8 7 7 6 4 5 5 6 5 4 5 5 5 7 8 6 5 5 4 6 4 5 5 4 4 5 5 5
13 5 8 16 11 7 5 9 6 2 6 7 8 6 10 13 11 12 8 11 10 6 9 12 13 11 3 4 4 4 5 6 6 6 8 10 8 8 7 5 5 6 6 4 5 3 4 3 3
11 4 14 11 10 6 9 21 6 4 5 10 5 3 5 8 9 7 10 6 9 11 6 10 8 11 8 7 4 4 4 5 6 6 5 9 9 7 7 5 5 4 4 4 4 4 4 3 1
5 12 6 5 8 4 10 13 5 4 2 10 7 4 4 3 8 11 12 15 12 10 12 14 7 7 7 3 6 6 7 6 7 6 6 10 11 10 7 6 4 5 4 4 3 3 2 2 3
4 5 3 6 5 7 6 3 4 3 3 7 9 8 8 6 6 8 19 16 12 11 17 16 18 15 15 4 4 5 5 9 8 8 8 11 10 11 8 5 6 6 4 4 3 3 1 3 1
2 6 8 5 9 7 8 6 7 5 7 6 9 7 7 7 8 5 7 16 11 8 12 20 20 21 9 3 3 4 9 5 5 7 10 10 11 12 10 8 5 5 6 5 4 2 1 2 1
12 6 5 4 6 12 7 10 7 7 7 6 9 8 8 7 7 5 7 9 12 11 11 17 23 17 8 4 4 5 7 9 4 4 7 9 11 11 10 7 6 6 5 5 4 5 3 3 4
16 13 4 4 5 1 2 6 2 6 6 11 13 13 7 11 12 8 6 8 11 13 17 18 17 16 12 10 4 4 5 5 3 3 3 6 10 10 9 8 6 6 5 6 6 7 8 4 3
16 8 8 4 5 4 3 8 6 6 18 19 16 15 12 11 8 5 7 9 13 16 16 15 12 11 8 7 4 9 9 10 9 6 6 6 9 8 8 7 7 6 5 6 6 4 3 4 5
9 8 8 7 5 5 5 2 7 4 18 21 20 21 16 10 9 8 8 7 13 17 19 15 15 14 15 10 10 11 11 5 2 3 6 6 5 7 6 8 7 6 4 4 6 5 8 4 4
6 6 4 2 5 5 6 4 16 14 24 18 9 14 13 10 8 7 6 1 4 10 16 17 19 12 7 12 9 11 8 6 3 2 4 3 3 4 6 7 6 6 6 7 6 6 7 5 4
14 8 2 1 2 13 8 7 20 9 19 22 16 13 12 9 8 7 5 7 2 7 8 8 9 7 6 9 8 7 7 5 4 1 4 5 3 1 5 5 6 5 5 4 5 6 6 5 4
14 11 7 5 6 5 6 15 9 12 24 14 15 11 9 9 8 11 9 6 7 9 9 10 9 10 8 9 5 3 6 4 4 3 3 3 2 2 3 4 4 6 6 7 6 3 4 5 5
7 7 9 6 0 4 6 10 15 17 14 6 10 10 9 9 11 11 8 12 14 13 11 11 13 11 10 10 9 9 9 10 7 8 8 4 6 5 6 5 6 4 6 7 6 4 5 5 5
11 9 4 3 6 5 2 6 2 17 11 8 11 10 12 15 16 13 13 14 12 14 12 13 13 13 10 11 9 7 7 6 6 6 7 7 6 7 8 8 7 4 3 2 3 4 5 5 5
5 6 6 7 5 6 1 7 5 13 25 15 10 15 16 13 12 14 13 12 13 13 13 12 13 12 11 10 8 9 6 6 6 7 6 6 6 7 7 7 6 5 5 6 5 5 6 6 6
10 9 7 7 3 2 4 9 14 22 7 15 17 20 18 14 14 15 14 13 12 11 12 12 12 13 9 8 9 8 8 7 7 7 5 5 6 5 6 7 6 5 6 5 6 4 5 5 6
Wind_Direction
316 308 300 39 45 58 265 250 231 16 336 278 160 138 160 142 234 223 318 163 138 151 158 159 153 146 139 137 136 135 132 129 127 124 121 120 123 127 125 123 125 126 125 121 120 120 118 117 111
317 316 34 80 103 102 267 227 264 190 161 100 111 93 160 201 238 184 129 163 154 149 155 161 158 151 145 145 144 144 141 139 135 133 133 134 138 137 133 132 134 133 127 127 127 125 124 123 115
289 163 84 142 162 193 238 228 274 308 253 248 133 318 159 208 264 163 150 153 149 152 160 160 156 155 150 151 150 149 146 145 143 144 145 147 149 143 138 140 139 137 131 132 130 128 128 128 118
315 12 12 134 224 256 236 336 309 314 313 14 110 176 256 209 158 202 154 147 154 151 153 166 157 162 155 155 155 154 153 153 152 151 153 154 153 149 146 146 142 140 137 137 135 133 133 136 113
38 74 189 199 245 254 268 275 277 292 283 232 164 182 248 341 237 149 154 152 155 148 142 166 163 161 160 160 159 159 159 158 159 155 157 160 158 158 154 151 146 143 142 144 143 141 139 141 150
1 108 123 221 246 261 280 289 303 289 284 212 155 146 233 149 139 144 150 152 161 142 143 162 171 163 159 162 162 163 160 161 161 159 161 162 163 165 161 155 148 147 149 154 154 149 156 170 200
151 110 208 218 242 271 274 339 293 293 317 334 82 119 250 130 132 151 151 144 141 141 136 157 168 168 161 161 161 161 158 162 163 165 165 165 166 165 162 158 155 155 158 164 161 167 184 200 223
147 118 218 221 228 273 268 280 256 5 51 267 292 226 186 127 145 138 134 124 133 136 141 156 166 168 164 163 160 162 162 164 167 171 167 166 166 165 166 168 168 166 170 178 181 191 203 218 240
149 176 218 219 215 247 306 332 304 250 93 80 328 64 307 140 143 133 132 133 135 144 151 161 166 168 170 168 169 165 167 168 170 175 170 162 162 170 178 178 184 182 188 192 198 208 217 231 243
172 204 227 202 225 255 275 334 325 286 314 64 14 26 360 139 137 141 158 155 149 150 155 157 164 171 166 169 172 168 167 165 167 167 166 155 171 176 182 191 196 199 206 205 209 215 223 235 241
213 229 212 204 239 249 273 311 341 271 46 76 69 28 25 11 336 149 167 165 161 163 163 134 122 135 152 148 174 174 179 173 170 168 162 160 169 193 194 200 207 200 216 218 218 225 225 226 230
247 241 213 290 266 277 250 235 291 11 61 130 92 94 72 2 348 9 37 10 17 77 151 148 156 164 185 143 169 166 174 169 171 179 165 167 177 199 198 201 209 203 196 209 226 232 246 249 249
243 265 250 225 264 245 297 240 246 266 51 42 95 84 114 82 326 329 353 41 59 38 18 19 173 167 161 150 147 156 202 185 186 183 192 177 191 204 190 208 203 209 188 204 222 215 257 264 284
224 222 250 246 250 249 235 236 178 239 340 13 85 106 112 140 166 246 214 69 58 31 7 10 359 227 155 186 181 189 181 193 190 191 200 193 192 208 203 210 210 204 204 208 196 183 213 239 218
240 250 221 236 244 213 118 273 222 267 349 334 28 119 128 139 159 202 212 186 139 139 92 52 4 19 295 198 217 202 198 195 204 208 209 205 197 198 208 204 197 210 215 180 174 172 159 209 216
202 188 236 232 229 211 165 257 219 287 4 304 342 65 150 157 157 211 216 212 161 197 141 78 47 328 329 338 220 223 212 202 217 216 201 213 211 202 209 211 202 175 167 164 158 195 197 232 240
230 224 211 223 220 149 187 251 236 228 229 284 298 308 295 222 141 138 157 173 173 191 135 127 112 271 256 265 340 251 223 215 213 212 194 213 212 209 198 201 191 139 152 173 189 214 201 186 249
232 163 195 205 256 190 209 227 273 270 225 246 279 283 294 264 169 148 172 179 177 174 167 157 151 196 245 203 156 295 256 216 228 217 209 208 215 211 203 195 171 155 160 174 190 237 121 68 258
265 197 200 208 228 165 207 205 229 249 278 259 267 268 265 270 162 179 124 182 176 184 172 181 176 189 218 133 167 142 246 217 211 204 209 203 209 213 212 221 161 161 151 191 206 103 141 301 281
240 226 218 255 190 196 221 237 228 231 238 238 259 251 254 262 152 180 147 142 167 170 180 184 182 190 201 185 188 171 257 242 190 200 196 198 207 204 199 185 198 163 147 188 184 177 180 210 177
217 218 176 178 173 275 102 296 271 271 251 256 249 256 229 234 257 156 165 183 165 170 187 210 204 195 207 201 174 224 233 267 233 200 209 210 211 199 193 186 179 187 164 183 198 192 205 168 234
216 182 207 208 144 196 97 264 281 262 259 251 244 246 234 201 227 173 189 181 188 199 186 206 207 212 220 166 198 222 232 232 239 231 224 211 205 198 194 171 183 197 176 188 196 204 243 146 181
219 187 193 217 188 136 161 100 247 300 271 248 246 237 234 198 197 220 236 210 213 195 192 191 197 214 225 214 218 218 217 235 286 225 240 216 213 197 184 176 176 182 187 206 191 159 212 205 142
178 162 179 191 182 241 176 172 272 254 240 258 216 224 220 204 199 197 245 276 329 168 188 181 199 213 189 198 197 195 206 212 225 261 235 215 205 203 185 185 184 182 187 186 197 192 197 186 153
180 137 228 245 214 236 123 230 238 258 243 231 236 217 204 185 175 134 132 110 5 87 135 138 156 168 171 168 176 175 147 145 119 249 231 184 141 235 215 191 193 186 191 202 204 180 185 178 178
195 162 147 168 206 248 137 251 245 237 246 253 224 195 144 168 175 128 127 128 88 68 69 83 88 80 59 67 53 23 52 68 66 65 40 19 339 270 267 227 228 205 182 188 206 182 184 183 201
190 166 181 131 293 182 219 273 275 253 252 198 145 137 144 135 122 122 134 104 95 85 76 85 82 71 64 60 55 47 45 38 54 55 55 40 3 344 276 259 241 221 196 189 188 190 202 191 203
157 167 109 23 158 240 289 313 296 354 258 141 128 143 105 124 120 113 96 96 93 91 93 79 81 86 84 77 71 71 71 58 46 56 48 45 29 18 24 23 12 13 341 297 216 223 238 201 226
143 168 71 115 146 171 59 270 258 325 321 149 137 120 121 116 115 109 104 88 89 83 80 80 71 67 59 60 62 57 51 61 60 49 40 38 20 12 16 13 11 339 331 338 348 317 297 277 262
176 176 140 126 215 116 138 273 357 331 280 130 129 128 132 124 123 113 105 100 93 90 80 75 69 67 61 51 45 40 35 29 34 27 19 29 26 9 354 350 359 6 347 13 312 319 308 297 276